Weather in Warrnambool

Australia     38°23′02″S   142°29′00″E
temp.,
°C
wind,
m/s
gust,
m/s
humid.,
%
clouds,
%
prec.,
mm/h
press.,
hPa
HPBL,
m
6 december, mon
mon623:00+14ese89720 0.0 1017429
02:00+11nne33800 0.0 1015129
05:00+11ne347529 0.0 1014140
08:00+13nne3475100 0.0 1013170
11:00+19w345799 0.0 1012159
14:00+15sw667535 0.0 1010161
17:00+16sw59755 0.0 1010409
20:00+16wsw567745 0.0 1012681
7 december, tue
tue723:00+15wsw677687 0.0 1012528
02:00+15w667978 0.0 1011597
05:00+15wsw888490 0.1 1010749
08:00+14sw8970100 0.4 10131021
11:00+13sw99675 0.4 10151246
14:00+14sw885918 0.0 10161588
17:00+13ssw776099 0.1 10161525
20:00+13s78615 0.2 10181398
8 december, wed
wed823:00+13s8856100 0.3 10181773
02:00+13s675797 0.1 10181534
05:00+13sse886899 0.6 10181129
08:00+13sse8866100 0.4 10201229
11:00+12sse997298 1.5 10211018
14:00+13sse10116474 0.8 10211517
17:00+13sse88591 0.9 10211241
20:00+13sse910605 0.0 10221489
9 december, thu
thu923:00+13sse1010625 0.0 10221432
02:00+13sse910635 0.0 10221234
05:00+13sse91066100 0.0 10211276
08:00+13sse9106954 0.0 10211154
11:00+14sse996984 0.0 10221217
14:00+14sse99700 0.0 10211045
17:00+14sse997232 0.0 1021962
20:00+14se997184 0.0 10211033
10 december, fri
fri1023:00+14sse99712 0.0 1021929
02:00+14se89726 0.0 10211052
05:00+14se8969100 0.1 10201142
08:00+14se786986 0.0 10211100
11:00+14sse886996 0.0 10221095
14:00+14sse89715 0.0 1021863
17:00+14se997315 0.0 1020888
20:00+14se10107828 0.0 1020784